[[{"header":{"parameterUnit":"m.s-1","parameterCategory":1,"la1":30.2991,"la2":30.254,"lo1":-89.0895,"lo2":-89.0444,"dy":0.0017,"dx":0.0017,"nx":28,"ny":28,"refTime":"2024-06-23T09:00:00:Z","depth":0,"parameterNumber":2,"parameterNumberName":"U-component_of_WINDS"},"data":[0,0,0,0,0,0,0,0,0,0,0,0,0,0,0,0,0,0,0,0,0,0,0,0,0,0,0,0,0,0,0,0,0,0,0,0,0,0,0,0,0,0,0,0,0,0,0,0,0,0,0,0,0,0,0,0,0,0,3.9765,3.9766,0,3.9884,3.9885,3.9887,3.9852,3.9849,3.9847,3.9845,3.9963,3.9969,3.9974,0,0,0,0,0,0,0,0,0,0,0,0,0,3.9503,3.9508,3.9765,3.9766,3.9768,3.9884,3.9885,3.9887,3.9852,3.9849,3.9846,3.9843,3.9962,3.9968,3.9974,0,0,0,0,0,0,0,0,0,0,0,0,0,3.9619,3.9509,3.9764,3.9764,3.9766,3.9884,3.9886,3.9888,3.9853,3.9849,3.9846,3.9842,3.9959,3.9967,3.9975,4.0099,0,0,4.0,4.0004,0,0,0,0,0,0,0,0,3.9612,3.9628,3.9763,3.9765,3.9766,3.9849,3.9837,3.9958,3.9854,3.982,3.9845,3.984,3.9928,3.9939,3.9969,4.0105,4.011,4.0001,4.0006,4.001,4.0012,0,0,0,0,0,0,0,3.9604,3.9623,3.9812,3.9765,3.9767,3.9757,3.9769,3.9859,3.9893,3.9822,3.982,3.9835,3.9928,3.9961,3.9972,4.0112,4.0001,4.0008,4.0013,4.0016,4.0353,4.0357,0,0,0,0,0,0,3.9595,3.9616,3.9808,3.9815,3.9679,3.9765,3.9779,3.9826,3.9892,3.9898,3.9838,3.9833,3.9949,3.9962,3.9976,4.0123,4.0009,4.0017,4.0022,4.0349,4.0354,4.0358,0,0,0,0,0,0,3.959,3.9613,3.9803,3.9715,3.9739,3.9773,3.9827,3.9831,3.9863,3.9904,3.9909,3.9866,3.9947,3.9964,4.0069,4.0126,4.0021,4.0028,4.0344,4.035,4.0356,4.042,0,0,0,0,0,0,3.9583,3.9611,3.966,3.9717,3.9744,3.9896,3.9831,3.9836,3.9878,3.9873,3.9931,3.9937,3.9945,4.0057,4.0077,4.0136,4.0035,4.0339,4.0347,4.0354,4.0413,4.0427,4.044,0,0,0,0,0,3.9573,3.9673,3.9662,3.9686,3.9805,3.9899,3.9914,3.9922,3.9883,3.9931,3.9957,3.9935,4.0118,4.0068,4.009,4.0152,4.0335,4.0345,4.0353,4.0406,4.0424,4.044,0,0,0,0,0,0,3.9621,3.968,3.9669,3.9791,3.984,3.9893,3.9954,3.9941,4.0002,3.9994,4.0001,4.0014,4.0121,4.0147,4.0091,4.0275,4.022,4.0234,4.0253,4.027,4.0284,4.0274,4.0041,0,0,0,0,0,3.9645,3.9718,3.9766,3.9868,3.9893,3.992,3.9961,3.9963,4.0014,4.0034,4.0068,4.0117,4.0185,4.023,4.0295,4.0417,4.0428,4.0471,4.0485,4.0496,4.0507,4.0571,4.059,4.0388,4.0388,4.0388,0,0,3.9697,3.9738,3.9783,3.9878,3.9917,3.999,3.9937,4.0018,4.0071,4.0046,4.0146,4.0173,4.0228,4.0341,4.0393,4.0367,4.0565,4.0507,4.0516,4.0521,4.0582,4.0601,4.0618,4.0394,4.0393,4.0392,0,0,3.9827,3.9867,3.9955,3.9995,4.0055,4.0071,4.0093,4.0148,4.0164,4.0265,4.0247,4.0311,4.0429,4.0468,4.0504,4.0648,4.063,4.0669,4.0739,4.0802,4.0818,4.0832,4.088,4.0898,4.0681,4.0681,4.0681,0,3.9883,3.9993,4.0002,4.0083,4.0124,4.0106,4.0194,4.0232,4.031,4.0338,4.0308,4.0454,4.049,4.0611,4.0647,4.0677,4.0699,4.0662,4.0815,4.0829,4.0842,4.0889,4.0907,4.0685,4.0685,4.0684,4.0684,0,4.0057,4.0135,4.0199,4.0274,4.0323,4.0407,4.0427,4.0475,4.0473,4.0492,4.0594,4.0637,4.0709,4.0739,4.0737,4.0859,4.084,4.0813,4.0758,4.0866,4.0909,4.0927,4.0691,4.069,4.0689,4.0688,0,0,4.022,4.0299,4.0322,4.0355,4.0419,4.0478,4.0561,4.0632,4.0672,4.0726,4.0794,4.0894,4.0868,4.0909,4.0912,4.0967,4.1075,4.0932,4.0933,4.0955,4.1208,4.1227,4.1247,4.1064,4.1068,4.1071,4.1203,0,4.0353,4.05,4.0509,4.0641,4.0711,4.0695,4.0766,4.0812,4.0833,4.0894,4.0916,4.0985,4.0948,4.0972,4.1026,4.105,4.1125,4.1041,4.1125,4.1128,4.1108,4.1271,4.129,4.1413,4.122,4.1223,4.1225,0,4.0528,4.0588,4.0727,4.0779,4.0809,4.0873,4.0938,4.0998,4.1049,4.106,4.1105,4.11,4.1182,4.1127,4.1239,4.1182,4.1217,4.1234,4.1239,4.1244,4.1181,4.1278,4.1453,4.147,4.1253,4.1251,4.1249,0,4.0629,4.0744,4.0841,4.087,4.0935,4.098,4.1009,4.1057,4.1099,4.1156,4.1182,4.1248,4.1284,4.1334,4.1346,4.1305,4.1457,4.1403,4.1466,4.1466,4.1497,4.1494,4.1677,4.1525,4.1524,4.1524,4.1524,0,4.0775,4.086,4.0887,4.0946,4.104,4.1051,4.1143,4.1168,4.1211,4.1274,4.1264,4.1323,4.1337,4.1398,4.1408,4.1498,4.1515,4.1524,4.1525,4.1523,4.1521,4.1544,4.1534,4.1529,4.1528,4.1527,4.1526,0,4.0902,4.0924,4.1029,4.1081,4.1097,4.1163,4.1207,4.1263,4.1283,4.1362,4.1381,4.1411,4.1482,4.15,4.1585,4.1591,4.1697,4.1692,4.168,4.1678,4.1739,4.1732,4.194,4.1967,4.18,4.1802,4.1803,0,4.0993,4.1058,4.1117,4.1159,4.119,4.1258,4.13,4.1313,4.1357,4.142,4.1468,4.1538,4.1595,4.1709,4.1737,4.1801,4.1795,4.1864,4.1805,4.18,4.1792,4.1787,4.1792,4.1874,4.1876,4.1877,4.1878,0,4.115,4.1157,4.122,4.1286,4.1337,4.139,4.144,4.1474,4.1493,4.1543,4.1617,4.1661,4.1747,4.1816,4.1881,4.1908,4.1896,4.1897,4.1915,4.1912,4.1901,4.1904,4.1707,4.1892,4.189,4.1889,4.1889,4.1888,4.126,4.1315,4.1366,4.1435,4.1474,4.1521,4.1576,4.1602,4.1664,4.1735,4.1739,4.1818,4.1865,4.1951,4.1983,4.2043,4.2022,4.2048,4.2054,4.2059,4.2063,4.1894,4.2055,4.2055,4.2054,4.2054,4.2054,0,4.1414,4.1445,4.1509,4.1579,4.1633,4.1619,4.1673,4.1719,4.1788,4.1835,4.1891,4.1974,4.204,4.2074,4.2139,4.2181,4.2176,4.2197,4.2193,4.2199,4.208,4.2057,4.2199,4.2199,4.2199,4.2199,4.2199,4.2199,4.15,4.1593,4.1606,4.1718,4.1748,4.1826,4.1858,4.19,4.1937,4.203,4.2086,4.2108,4.2148,4.2216,4.2276,4.2284,4.2307,4.233,4.2335,4.2222,4.2207,4.2193,4.2171,4.2336,4.2336,4.2448,4.2449,4.245]},{"header":{"parameterUnit":"m.s-1","parameterCategory":1,"la1":30.2991,"la2":30.254,"lo1":-89.0895,"lo2":-89.0444,"dy":0.0017,"dx":0.0017,"nx":28,"ny":28,"refTime":"2024-06-23T09:00:00:Z","depth":0,"parameterNumber":3,"parameterNumberName":"V-component_of_WINDS"},"data":[0,0,0,0,0,0,0,0,0,0,0,0,0,0,0,0,0,0,0,0,0,0,0,0,0,0,0,0,0,0,0,0,0,0,0,0,0,0,0,0,0,0,0,0,0,0,0,0,0,0,0,0,0,0,0,0,0,0,2.3435,2.3436,0,2.355,2.3552,2.3553,2.3565,2.3564,2.3563,2.3562,2.3679,2.3683,2.3687,0,0,0,0,0,0,0,0,0,0,0,0,0,2.3223,2.3227,2.3435,2.3436,2.3438,2.355,2.3552,2.3553,2.3566,2.3564,2.3563,2.3561,2.3678,2.3683,2.3688,0,0,0,0,0,0,0,0,0,0,0,0,0,2.3325,2.3228,2.3435,2.3458,2.3461,2.355,2.3552,2.3554,2.3566,2.3564,2.3562,2.3561,2.3676,2.3682,2.3688,2.3762,0,0,2.3708,2.371,0,0,0,0,0,0,0,0,2.3319,2.3332,2.3453,2.3456,2.346,2.3542,2.352,2.3624,2.3566,2.3526,2.3562,2.356,2.3635,2.3644,2.367,2.3768,2.3773,2.3708,2.3712,2.3715,2.3717,0,0,0,0,0,0,0,2.3312,2.3327,2.3481,2.3454,2.3459,2.3461,2.3474,2.354,2.3589,2.3529,2.3531,2.3544,2.3636,2.3664,2.3673,2.3775,2.3708,2.3714,2.3718,2.372,2.3938,2.394,0,0,0,0,0,0,2.3301,2.3321,2.3477,2.3484,2.3384,2.3467,2.3481,2.3517,2.3588,2.3597,2.3545,2.3544,2.3654,2.3665,2.3677,2.3768,2.3715,2.3721,2.3724,2.3936,2.3939,2.3941,0,0,0,0,0,0,2.3296,2.3314,2.3472,2.3403,2.3423,2.3472,2.3513,2.352,2.3548,2.36,2.3609,2.3565,2.3653,2.3668,2.3741,2.3772,2.3723,2.3729,2.3934,2.3937,2.394,2.395,0,0,0,0,0,0,2.329,2.3313,2.3342,2.3404,2.3427,2.3535,2.3515,2.3524,2.3559,2.3558,2.362,2.3629,2.3653,2.3731,2.3747,2.378,2.3734,2.3931,2.3935,2.3939,2.3947,2.3953,2.3958,0,0,0,0,0,2.3282,2.334,2.3343,2.3362,2.3465,2.3537,2.355,2.3577,2.3561,2.3591,2.3624,2.3627,2.3766,2.3739,2.3757,2.3792,2.3929,2.3934,2.3938,2.3945,2.3952,2.3958,0,0,0,0,0,0,2.3281,2.3349,2.3353,2.3433,2.3479,2.3539,2.3577,2.3583,2.3635,2.3632,2.3662,2.3676,2.3748,2.3777,2.3745,2.3866,2.3846,2.3854,2.3845,2.3852,2.3857,2.3849,2.3739,0,0,0,0,0,2.329,2.3343,2.34,2.3464,2.3487,2.3528,2.3561,2.3577,2.3626,2.3645,2.3684,2.3731,2.3785,2.382,2.3873,2.3951,2.3965,2.3984,2.3989,2.3994,2.4001,2.4043,2.4052,2.3956,2.3956,2.3956,0,0,2.3309,2.3352,2.3384,2.3465,2.3503,2.3557,2.3544,2.3602,2.3643,2.3654,2.3725,2.3755,2.3809,2.3885,2.3921,2.3912,2.403,2.3999,2.4002,2.4007,2.4049,2.4058,2.4066,2.3959,2.3958,2.3958,0,0,2.3371,2.341,2.3468,2.3506,2.3563,2.3589,2.3603,2.3662,2.3682,2.3755,2.3764,2.3811,2.3904,2.3942,2.3974,2.4049,2.4054,2.4065,2.4094,2.4135,2.4143,2.415,2.4176,2.4186,2.4072,2.4072,2.4072,0,2.3387,2.347,2.3497,2.3554,2.3589,2.3602,2.366,2.3695,2.3767,2.379,2.3779,2.3895,2.3933,2.4017,2.4036,2.4061,2.4077,2.4059,2.414,2.4147,2.4154,2.4179,2.4189,2.4073,2.4073,2.4073,2.4073,0,2.3487,2.3544,2.3583,2.3652,2.3691,2.3749,2.3784,2.382,2.3833,2.386,2.3932,2.3978,2.4039,2.406,2.4073,2.4147,2.4139,2.4134,2.4114,2.4164,2.4188,2.4198,2.4075,2.4074,2.4074,2.4074,0,0,2.3552,2.3634,2.3648,2.3679,2.3743,2.3787,2.3845,2.3905,2.3936,2.3984,2.4033,2.411,2.4105,2.4141,2.4158,2.4194,2.425,2.4184,2.4186,2.4195,2.4333,2.4337,2.4348,2.4253,2.4255,2.4257,2.4328,0,2.3622,2.3725,2.3751,2.3839,2.3891,2.3903,2.3954,2.3997,2.4024,2.4072,2.4101,2.4156,2.4145,2.4167,2.4203,2.4236,2.4278,2.4231,2.4298,2.43,2.4284,2.4361,2.4365,2.4431,2.4338,2.434,2.4341,0,2.3717,2.3767,2.3861,2.3917,2.3939,2.3984,2.4041,2.4087,2.4136,2.4153,2.4193,2.4206,2.4265,2.4242,2.4324,2.4291,2.432,2.434,2.4343,2.435,2.4324,2.437,2.4452,2.4462,2.4356,2.4355,2.4354,0,2.3754,2.3846,2.3913,2.394,2.4006,2.4037,2.4067,2.4115,2.4149,2.4198,2.4221,2.4277,2.4307,2.4349,2.4377,2.4357,2.4456,2.4435,2.4471,2.4471,2.4492,2.449,2.458,2.4511,2.451,2.451,2.451,0,2.3829,2.3886,2.3931,2.3973,2.4036,2.4064,2.4126,2.4156,2.4198,2.4245,2.4258,2.4302,2.4335,2.4383,2.4405,2.4469,2.4483,2.4497,2.4503,2.4496,2.4495,2.4516,2.4512,2.4513,2.4512,2.4512,2.4511,0,2.3882,2.3915,2.399,2.4047,2.4062,2.4106,2.4155,2.4195,2.4222,2.4281,2.4297,2.4338,2.4395,2.4427,2.4498,2.4513,2.4584,2.4587,2.4568,2.457,2.4604,2.46,2.4711,2.4726,2.4646,2.4647,2.4648,0,2.3928,2.3972,2.4033,2.4066,2.4096,2.4148,2.4183,2.4212,2.4248,2.4307,2.434,2.4398,2.4446,2.4536,2.4572,2.4627,2.4631,2.4666,2.4639,2.4631,2.4631,2.4628,2.4632,2.467,2.4671,2.4672,2.4672,0,2.4005,2.4019,2.4069,2.4125,2.4167,2.4212,2.4257,2.4283,2.4319,2.4358,2.4417,2.4454,2.4527,2.4584,2.4641,2.467,2.4677,2.468,2.4691,2.4686,2.4672,2.468,2.458,2.4678,2.4677,2.4677,2.4676,2.4676,2.4056,2.4095,2.4145,2.42,2.4237,2.4278,2.4319,2.435,2.44,2.4462,2.4475,2.4537,2.4584,2.4662,2.4692,2.474,2.4734,2.475,2.4754,2.4758,2.4759,2.4665,2.4751,2.4751,2.4751,2.4751,2.4751,0,2.4134,2.4166,2.4216,2.4279,2.4322,2.4325,2.4374,2.441,2.4464,2.4508,2.4555,2.4622,2.4677,2.4717,2.4773,2.4804,2.4808,2.4817,2.4815,2.4822,2.4762,2.4746,2.4813,2.4813,2.4813,2.4813,2.4813,2.4813,2.4179,2.4246,2.4265,2.4349,2.4381,2.4442,2.447,2.4508,2.4543,2.4617,2.4663,2.4689,2.4731,2.479,2.484,2.485,2.487,2.4879,2.489,2.4833,2.4826,2.482,2.4806,2.4883,2.4883,2.4946,2.4946,2.4947]}]]